Hourly Weather Klagenfurt

Today, 30 September, Wednesday

Time Temperature Precipitation Wind Pressure Humidity
00:00 +7°C° 0 mm 1 mps 690 mmHg 88%
01:00 +7°C° 0 mm 1 mps 690 mmHg 89%
02:00 +7°C° 0 mm 1 mps 689 mmHg 89%
03:00 +6°C° 0 mm 1 mps 689 mmHg 89%
04:00 +6°C° 0 mm 1 mps 689 mmHg 89%
05:00 +7°C° 0 mm 1 mps 689 mmHg 87%
06:00 +7°C° 0 mm 1 mps 689 mmHg 86%
07:00 +8°C° 0 mm 1 mps 689 mmHg 84%
08:00 +10°C° 0 mm 1 mps 689 mmHg 76%
09:00 +13°C° 0 mm 1 mps 690 mmHg 67%
10:00 +15°C° 0 mm 0 mps 690 mmHg 59%
11:00 +16°C° 0 mm 1 mps 690 mmHg 56%
12:00 +18°C° 0 mm 1 mps 689 mmHg 53%
13:00 +19°C° 0 mm 1 mps 689 mmHg 50%
14:00 +19°C° 0 mm 1 mps 689 mmHg 54%
15:00 +18°C° 0 mm 1 mps 688 mmHg 58%
16:00 +16°C° 0 mm 1 mps 688 mmHg 63%
17:00 +14°C° 0 mm 1 mps 687 mmHg 71%
18:00 +12°C° 0 mm 1 mps 687 mmHg 80%
19:00 +10°C° 0 mm 1 mps 687 mmHg 88%
20:00 +10°C° 0 mm 1 mps 687 mmHg 89%
21:00 +9°C° 0 mm 1 mps 687 mmHg 90%
22:00 +9°C° 0 mm 1 mps 687 mmHg 91%
23:00 +9°C° 0 mm 1 mps 686 mmHg 91%

Tomorrow, 1 October, Thursday

Time Temperature Precipitation Wind Pressure Humidity
00:00 +8°C° 0 mm 1 mps 686 mmHg 92%
01:00 +8°C° 0 mm 1 mps 686 mmHg 92%
02:00 +8°C° 0 mm 1 mps 685 mmHg 92%
03:00 +8°C° 0 mm 1 mps 685 mmHg 92%
04:00 +7°C° 0 mm 1 mps 684 mmHg 92%
05:00 +8°C° 0 mm 1 mps 684 mmHg 91%
06:00 +8°C° 0 mm 1 mps 684 mmHg 90%
07:00 +8°C° 0 mm 1 mps 684 mmHg 89%
08:00 +11°C° 0 mm 1 mps 684 mmHg 82%
09:00 +13°C° 0 mm 1 mps 684 mmHg 74%
10:00 +16°C° 0 mm 1 mps 684 mmHg 67%
11:00 +16°C° 0 mm 1 mps 684 mmHg 65%
12:00 +18°C° 0 mm 1 mps 684 mmHg 64%
13:00 +19°C° 0 mm 1 mps 684 mmHg 62%
14:00 +17°C° 0 mm 2 mps 684 mmHg 66%
15:00 +17°C° 0 mm 2 mps 683 mmHg 69%
16:00 +16°C° 0 mm 2 mps 683 mmHg 72%
17:00 +14°C° 0 mm 1 mps 683 mmHg 80%
18:00 +13°C° 0 mm 1 mps 683 mmHg 87%
19:00 +11°C° 0 mm 1 mps 682 mmHg 94%
20:00 +11°C° 0 mm 1 mps 683 mmHg 95%
21:00 +10°C° 0 mm 1 mps 683 mmHg 95%
22:00 +10°C° 0 mm 1 mps 683 mmHg 95%
23:00 +10°C° 0 mm 1 mps 683 mmHg 96%

Day after tomorrow, 2 October, Friday

Time Temperature Precipitation Wind Pressure Humidity
00:00 +10°C° 0 mm 1 mps 683 mmHg 96%
01:00 +10°C° 0 mm 1 mps 682 mmHg 96%
02:00 +9°C° 0 mm 1 mps 682 mmHg 96%
03:00 +9°C° 0 mm 1 mps 682 mmHg 96%
04:00 +8°C° 0 mm 0 mps 682 mmHg 96%
05:00 +9°C° 0 mm 0 mps 682 mmHg 96%
06:00 +9°C° 0 mm 0 mps 682 mmHg 96%
07:00 +9°C° 0 mm 0 mps 682 mmHg 96%
08:00 +11°C° 0.2 mm 1 mps 682 mmHg 93%
09:00 +12°C° 0.2 mm 1 mps 682 mmHg 90%
10:00 +13°C° 0.2 mm 1 mps 682 mmHg 87%
11:00 +13°C° 0.6 mm 1 mps 682 mmHg 90%
12:00 +13°C° 0.6 mm 1 mps 682 mmHg 92%
13:00 +13°C° 0.6 mm 1 mps 682 mmHg 94%
14:00 +13°C° 0.1 mm 1 mps 682 mmHg 93%
15:00 +14°C° 0.1 mm 1 mps 682 mmHg 93%
16:00 +14°C° 0.1 mm 1 mps 681 mmHg 92%
17:00 +13°C° 0.2 mm 1 mps 682 mmHg 93%
18:00 +12°C° 0.2 mm 1 mps 682 mmHg 95%
19:00 +12°C° 0.2 mm 1 mps 682 mmHg 96%
20:00 +12°C° 0.1 mm 1 mps 682 mmHg 96%
21:00 +12°C° 0.1 mm 1 mps 682 mmHg 96%
22:00 +12°C° 0.1 mm 1 mps 682 mmHg 96%
23:00 +12°C° 0.2 mm 1 mps 682 mmHg 97%

3 October, Saturday

Time Temperature Precipitation Wind Pressure Humidity
00:00 +12°C° 0.2 mm 1 mps 681 mmHg 97%
01:00 +12°C° 0.2 mm 1 mps 681 mmHg 97%
02:00 +12°C° 0.3 mm 1 mps 681 mmHg 97%
03:00 +12°C° 0.3 mm 1 mps 681 mmHg 97%
04:00 +12°C° 0.3 mm 1 mps 680 mmHg 97%
05:00 +12°C° 0.4 mm 1 mps 680 mmHg 97%
06:00 +13°C° 0.4 mm 1 mps 680 mmHg 97%
07:00 +13°C° 0.4 mm 1 mps 680 mmHg 98%
08:00 +13°C° 0.7 mm 1 mps 680 mmHg 97%
09:00 +14°C° 0.7 mm 1 mps 680 mmHg 97%
10:00 +14°C° 0.7 mm 1 mps 680 mmHg 96%
11:00 +15°C° 1.9 mm 1 mps 680 mmHg 96%
12:00 +15°C° 1.9 mm 1 mps 679 mmHg 95%
13:00 +15°C° 1.9 mm 1 mps 679 mmHg 95%
14:00 +15°C° 10.2 mm 2 mps 678 mmHg 96%
15:00 +15°C° 10.2 mm 2 mps 678 mmHg 97%
16:00 +15°C° 10.2 mm 2 mps 677 mmHg 99%
17:00 +15°C° 9.1 mm 2 mps 677 mmHg 98%
18:00 +15°C° 9.1 mm 2 mps 677 mmHg 98%
19:00 +15°C° 9.1 mm 2 mps 677 mmHg 98%
20:00 +14°C° 3.3 mm 2 mps 677 mmHg 97%
21:00 +12°C° 3.3 mm 2 mps 678 mmHg 96%
22:00 +9°C° 3.3 mm 2 mps 678 mmHg 95%
23:00 +8°C° 0 mm 2 mps 679 mmHg 96%

4 October, Sunday

Time Temperature Precipitation Wind Pressure Humidity
00:00 +7°C° 0 mm 2 mps 679 mmHg 96%
01:00 +6°C° 0 mm 2 mps 680 mmHg 96%
02:00 +6°C° 0 mm 2 mps 680 mmHg 96%
03:00 +6°C° 0 mm 2 mps 680 mmHg 96%
04:00 +5°C° 0 mm 2 mps 680 mmHg 96%
05:00 +7°C° 0 mm 1 mps 681 mmHg 96%
06:00 +7°C° 0 mm 1 mps 681 mmHg 96%
07:00 +7°C° 0 mm 1 mps 682 mmHg 96%
08:00 +9°C° 0.1 mm 1 mps 682 mmHg 91%
09:00 +10°C° 0.1 mm 2 mps 682 mmHg 86%
10:00 +12°C° 0.1 mm 2 mps 683 mmHg 82%
11:00 +13°C° 0.1 mm 2 mps 683 mmHg 76%
12:00 +14°C° 0.1 mm 2 mps 683 mmHg 71%
13:00 +15°C° 0.1 mm 2 mps 683 mmHg 66%
14:00 +15°C° 0 mm 2 mps 683 mmHg 68%
15:00 +14°C° 0 mm 2 mps 683 mmHg 69%
16:00 +14°C° 0 mm 2 mps 682 mmHg 71%
17:00 +12°C° 0.1 mm 2 mps 682 mmHg 79%
18:00 +10°C° 0.1 mm 1 mps 682 mmHg 86%
19:00 +9°C° 0.1 mm 1 mps 682 mmHg 94%
20:00 +9°C° 0.1 mm 1 mps 682 mmHg 95%
21:00 +9°C° 0.1 mm 1 mps 682 mmHg 95%
22:00 +9°C° 0.1 mm 1 mps 682 mmHg 95%
23:00 +9°C° 0.2 mm 1 mps 682 mmHg 95%

5 October, Monday

Time Temperature Precipitation Wind Pressure Humidity
00:00 +9°C° 0.2 mm 1 mps 682 mmHg 96%
01:00 +9°C° 0.2 mm 1 mps 681 mmHg 96%
02:00 +9°C° 0 mm 1 mps 681 mmHg 95%
03:00 +9°C° 0 mm 1 mps 681 mmHg 95%
04:00 +9°C° 0 mm 1 mps 680 mmHg 94%
05:00 +9°C° 0 mm 1 mps 680 mmHg 95%
06:00 +9°C° 0 mm 1 mps 680 mmHg 95%
07:00 +8°C° 0 mm 1 mps 679 mmHg 96%
08:00 +9°C° 0.4 mm 1 mps 679 mmHg 95%
09:00 +10°C° 0.4 mm 1 mps 679 mmHg 94%
10:00 +11°C° 0.4 mm 1 mps 679 mmHg 94%
11:00 +11°C° 0.8 mm 1 mps 679 mmHg 94%
12:00 +10°C° 0.8 mm 2 mps 679 mmHg 95%
13:00 +10°C° 0.8 mm 2 mps 678 mmHg 95%
14:00 +10°C° 1.8 mm 2 mps 678 mmHg 95%
15:00 +10°C° 1.8 mm 2 mps 678 mmHg 96%
16:00 +10°C° 1.8 mm 2 mps 678 mmHg 96%
17:00 +9°C° 0.2 mm 2 mps 678 mmHg 96%
18:00 +9°C° 0.2 mm 2 mps 679 mmHg 97%
19:00 +8°C° 0.2 mm 2 mps 679 mmHg 97%
20:00 +8°C° 0.1 mm 2 mps 680 mmHg 97%
21:00 +9°C° 0.1 mm 1 mps 680 mmHg 96%
22:00 +9°C° 0.1 mm 1 mps 681 mmHg 96%
23:00 +9°C° 0.1 mm 1 mps 681 mmHg 96%
Show more